This is the latest recevied weather packets stored in our database for station/object K1AWR. If no packets are shown the sender has not sent any weather packets the latest 10 day(s).
| Time | Temp. | Humidity | Pressure | Rain* | Wind** | Luminosity | Snow |
|---|---|---|---|---|---|---|---|
| 1777589815 | 13.89° C | 80% | 1007.4 hPa | 0 mm | - | 10 W/m² | - |
| 1777589515 | 13.89° C | 79% | 1007.1 hPa | 0 mm | - | 20 W/m² | - |
| 1777589215 | 13.89° C | 79% | 1007.1 hPa | 0 mm | - | 38 W/m² | - |
| 1777588911 | 13.89° C | 79% | 1007.1 hPa | 0 mm | - | 41 W/m² | - |
| 1777588607 | 13.89° C | 80% | 1007.1 hPa | 0 mm | - | 45 W/m² | - |
| 1777588302 | 13.89° C | 80% | 1006.9 hPa | 0 mm | - | 50 W/m² | - |
| 1777587999 | 13.89° C | 79% | 1006.7 hPa | 0 mm | - | 45 W/m² | - |
| 1777587694 | 13.89° C | 78% | 1006.9 hPa | 0 mm | - | 54 W/m² | - |
| 1777587395 | 13.89° C | 79% | 1006.7 hPa | 0 mm | - | 66 W/m² | - |
| 1777587090 | 13.89° C | 81% | 1006.8 hPa | 0 mm | - | 66 W/m² | - |
| 1777586787 | 13.89° C | 80% | 1006.6 hPa | 0 mm | - | 53 W/m² | - |
| 1777586482 | 13.89° C | 80% | 1006.8 hPa | 0 mm | - | 52 W/m² | - |
| 1777586178 | 13.89° C | 81% | 1006.6 hPa | 0 mm | - | 59 W/m² | - |
| 1777585875 | 13.89° C | 81% | 1006.7 hPa | 0 mm | - | 51 W/m² | - |
| 1777585570 | 13.89° C | 79% | 1006.7 hPa | 0 mm | - | 40 W/m² | - |
| 1777585267 | 13.89° C | 79% | 1006.7 hPa | 0 mm | - | 37 W/m² | - |
| 1777584961 | 13.89° C | 80% | 1006.7 hPa | 0 mm | - | 39 W/m² | - |
| 1777584658 | 13.89° C | 78% | 1006.5 hPa | 0 mm | - | 40 W/m² | - |
| 1777584356 | 13.89° C | 77% | 1006.6 hPa | 0 mm | - | 49 W/m² | - |
| 1777584052 | 13.89° C | 77% | 1006.5 hPa | 0 mm | - | 75 W/m² | - |
| 1777583752 | 13.89° C | 78% | 1006.6 hPa | 0 mm | - | 92 W/m² | - |
| 1777583451 | 13.89° C | 78% | 1006.5 hPa | 0 mm | - | 106 W/m² | - |
| 1777583151 | 13.89° C | 77% | 1006.5 hPa | 0 mm | - | 75 W/m² | - |
| 1777582847 | 13.89° C | 76% | 1006.4 hPa | 0 mm | - | 72 W/m² | - |
| 1777582544 | 13.89° C | 78% | 1006.3 hPa | 0 mm | - | 135 W/m² | - |
* Rain latest hour (hover to see other rain measurements)
** Current wind speed in m/s (hover to see current wind gust speed)